Time,TemperatureF,DewpointF,PressureIn,WindDirection,WindDirectionDegrees,WindSpeedMPH,WindSpeedGustMPH,Humidity,HourlyPrecipIn,Conditions,Clouds,dailyrainin,SolarRadiationWatts/m^2,SoftwareType,DateUTC
2013-08-17 00:04:00,65.9,55.4,29.94,SE,132,0.0,0.0,69,0.00,,,0.00,0,Wunderground v.1.15,2013-08-17 07:04:00,
2013-08-17 00:10:00,65.8,55.3,29.94,SE,132,0.0,0.0,69,0.00,,,0.00,0,Wunderground v.1.15,2013-08-17 07:10:00,
2013-08-17 00:15:00,65.6,55.2,29.94,SE,128,0.0,1.0,69,0.00,,,0.00,0,Wunderground v.1.15,2013-08-17 07:15:00,
2013-08-17 00:20:00,65.1,55.5,29.94,SE,128,0.0,1.0,71,0.00,,,0.00,0,Wunderground v.1.15,2013-08-17 07:20:00,
2013-08-17 00:26:00,65.0,55.8,29.94,SE,128,0.0,1.0,72,0.00,,,0.00,0,Wunderground v.1.15,2013-08-17 07:26:00,
2013-08-17 00:31:00,64.9,55.3,29.94,SE,126,0.0,0.0,71,0.00,,,0.00,0,Wunderground v.1.15,2013-08-17 07:31:00,
2013-08-17 00:37:00,65.0,55.0,29.94,SE,126,0.0,0.0,70,0.00,,,0.00,0,Wunderground v.1.15,2013-08-17 07:37:00,
2013-08-17 00:42:00,64.9,54.9,29.94,SE,126,0.0,1.0,70,0.00,,,0.00,0,Wunderground v.1.15,2013-08-17 07:42:00,
2013-08-17 00:47:00,64.8,54.8,29.94,SE,126,0.0,1.0,70,0.00,,,0.00,0,Wunderground v.1.15,2013-08-17 07:47:00,
2013-08-17 00:53:00,64.5,54.1,29.93,SE,124,0.0,2.0,69,0.00,,,0.00,0,Wunderground v.1.15,2013-08-17 07:53:00,
2013-08-17 00:58:00,64.3,53.9,29.93,SE,130,1.0,2.0,69,0.00,,,0.00,0,Wunderground v.1.15,2013-08-17 07:58:00,
2013-08-17 01:03:00,64.1,54.1,29.93,SE,130,1.0,1.0,70,0.00,,,0.00,0,Wunderground v.1.15,2013-08-17 08:03:00,
2013-08-17 01:09:00,64.0,54.0,29.93,SE,130,0.0,0.0,70,0.00,,,0.00,0,Wunderground v.1.15,2013-08-17 08:09:00,
2013-08-17 01:14:00,63.9,53.9,29.93,SE,130,0.0,0.0,70,0.00,,,0.00,0,Wunderground v.1.15,2013-08-17 08:14:00,
2013-08-17 01:19:00,64.0,54.4,29.93,SE,130,0.0,0.0,71,0.00,,,0.00,0,Wunderground v.1.15,2013-08-17 08:19:00,
2013-08-17 01:25:00,63.8,54.2,29.93,SE,130,0.0,0.0,71,0.00,,,0.00,0,Wunderground v.1.15,2013-08-17 08:25:00,
2013-08-17 01:30:00,63.5,53.9,29.93,SE,130,0.0,0.0,71,0.00,,,0.00,0,Wunderground v.1.15,2013-08-17 08:30:00,
2013-08-17 01:36:00,63.2,54.0,29.93,ESE,122,0.0,1.0,72,0.00,,,0.00,0,Wunderground v.1.15,2013-08-17 08:36:00,
2013-08-17 01:41:00,62.9,54.1,29.93,SE,124,1.0,1.0,73,0.00,,,0.00,0,Wunderground v.1.15,2013-08-17 08:41:00,
2013-08-17 01:47:00,62.8,54.4,29.93,ESE,121,0.0,1.0,74,0.00,,,0.00,0,Wunderground v.1.15,2013-08-17 08:47:00,
2013-08-17 01:53:00,62.6,54.2,29.92,SE,124,1.0,2.0,74,0.00,,,0.00,0,Wunderground v.1.15,2013-08-17 08:53:00,
2013-08-17 01:58:00,62.6,54.6,29.93,ESE,123,1.0,3.0,75,0.00,,,0.00,0,Wunderground v.1.15,2013-08-17 08:58:00,
2013-08-17 02:04:00,62.5,54.5,29.93,SE,128,2.0,2.0,75,0.00,,,0.00,0,Wunderground v.1.15,2013-08-17 09:04:00,
2013-08-17 02:10:00,62.5,54.5,29.93,SE,124,1.0,1.0,75,0.00,,,0.00,0,Wunderground v.1.15,2013-08-17 09:10:00,
2013-08-17 02:15:00,62.7,54.3,29.92,SE,128,1.0,1.0,74,0.00,,,0.00,0,Wunderground v.1.15,2013-08-17 09:15:00,
2013-08-17 02:20:00,62.8,54.4,29.92,SE,128,0.0,0.0,74,0.00,,,0.00,0,Wunderground v.1.15,2013-08-17 09:20:00,
2013-08-17 02:26:00,62.8,54.8,29.92,SE,124,0.0,1.0,75,0.00,,,0.00,0,Wunderground v.1.15,2013-08-17 09:26:00,
2013-08-17 02:31:00,62.5,54.5,29.92,SE,125,1.0,2.0,75,0.00,,,0.00,0,Wunderground v.1.15,2013-08-17 09:31:00,
2013-08-17 02:36:00,62.3,54.3,29.92,ESE,121,2.0,3.0,75,0.00,,,0.00,0,Wunderground v.1.15,2013-08-17 09:36:00,
2013-08-17 02:42:00,62.2,54.2,29.92,SE,142,2.0,3.0,75,0.00,,,0.00,0,Wunderground v.1.15,2013-08-17 09:42:00,
2013-08-17 02:47:00,62.2,53.8,29.92,SE,132,2.0,3.0,74,0.00,,,0.00,0,Wunderground v.1.15,2013-08-17 09:47:00,
2013-08-17 02:52:00,62.3,53.9,29.92,ESE,121,1.0,1.0,74,0.00,,,0.00,0,Wunderground v.1.15,2013-08-17 09:52:00,
2013-08-17 02:58:00,62.3,53.9,29.92,SE,126,1.0,3.0,74,0.00,,,0.00,0,Wunderground v.1.15,2013-08-17 09:58:00,
2013-08-17 03:04:00,62.3,53.9,29.92,ESE,120,1.0,2.0,74,0.00,,,0.00,0,Wunderground v.1.15,2013-08-17 10:04:00,
2013-08-17 03:09:00,62.1,54.4,29.92,SE,132,1.0,2.0,76,0.00,,,0.00,0,Wunderground v.1.15,2013-08-17 10:09:00,
2013-08-17 03:15:00,62.0,54.3,29.92,SE,138,2.0,3.0,76,0.00,,,0.00,0,Wunderground v.1.15,2013-08-17 10:15:00,
2013-08-17 03:20:00,62.0,54.3,29.92,SE,129,2.0,2.0,76,0.00,,,0.00,0,Wunderground v.1.15,2013-08-17 10:20:00,
2013-08-17 03:25:00,62.0,54.3,29.92,SE,137,2.0,3.0,76,0.00,,,0.00,0,Wunderground v.1.15,2013-08-17 10:25:00,
2013-08-17 03:31:00,62.0,54.0,29.92,SE,132,2.0,2.0,75,0.00,,,0.00,0,Wunderground v.1.15,2013-08-17 10:31:00,
2013-08-17 03:36:00,62.0,54.0,29.92,ESE,122,1.0,2.0,75,0.00,,,0.00,0,Wunderground v.1.15,2013-08-17 10:36:00,
2013-08-17 03:42:00,61.9,53.9,29.92,SE,129,1.0,1.0,75,0.00,,,0.00,0,Wunderground v.1.15,2013-08-17 10:42:00,
2013-08-17 03:47:00,61.7,53.7,29.91,ESE,122,0.0,2.0,75,0.00,,,0.00,0,Wunderground v.1.15,2013-08-17 10:47:00,
2013-08-17 03:53:00,61.5,53.5,29.92,SE,136,1.0,3.0,75,0.00,,,0.00,0,Wunderground v.1.15,2013-08-17 10:53:00,
2013-08-17 03:58:00,61.4,53.8,29.92,SE,139,2.0,3.0,76,0.00,,,0.00,0,Wunderground v.1.15,2013-08-17 10:58:00,
2013-08-17 04:04:00,61.5,53.9,29.92,SE,127,1.0,2.0,76,0.00,,,0.00,0,Wunderground v.1.15,2013-08-17 11:04:00,
2013-08-17 04:09:00,61.3,54.0,29.92,SE,128,0.0,0.0,77,0.00,,,0.00,0,Wunderground v.1.15,2013-08-17 11:09:00,
2013-08-17 04:14:00,61.4,53.8,29.91,SE,128,0.0,0.0,76,0.00,,,0.00,0,Wunderground v.1.15,2013-08-17 11:14:00,
2013-08-17 04:20:00,61.3,53.3,29.91,SE,128,0.0,0.0,75,0.00,,,0.00,0,Wunderground v.1.15,2013-08-17 11:20:00,
2013-08-17 04:25:00,61.2,53.6,29.91,SE,128,0.0,1.0,76,0.00,,,0.00,0,Wunderground v.1.15,2013-08-17 11:25:00,
2013-08-17 04:30:00,61.0,53.4,29.91,SE,134,1.0,3.0,76,0.00,,,0.00,0,Wunderground v.1.15,2013-08-17 11:30:00,
2013-08-17 04:36:00,60.6,53.0,29.91,SE,124,2.0,3.0,76,0.00,,,0.00,0,Wunderground v.1.15,2013-08-17 11:36:00,
2013-08-17 04:42:00,60.4,53.2,29.91,SE,132,3.0,5.0,77,0.00,,,0.00,0,Wunderground v.1.15,2013-08-17 11:42:00,
2013-08-17 04:47:00,60.6,53.3,29.91,SE,128,3.0,5.0,77,0.00,,,0.00,0,Wunderground v.1.15,2013-08-17 11:47:00,
2013-08-17 04:52:00,60.8,53.9,29.90,SE,146,3.0,4.0,78,0.00,,,0.00,0,Wunderground v.1.15,2013-08-17 11:52:00,
2013-08-17 04:58:00,60.9,53.3,29.91,ESE,120,2.0,4.0,76,0.00,,,0.00,0,Wunderground v.1.15,2013-08-17 11:58:00,
2013-08-17 05:03:00,61.0,53.7,29.91,ESE,120,1.0,2.0,77,0.00,,,0.00,0,Wunderground v.1.15,2013-08-17 12:03:00,
2013-08-17 05:08:00,61.1,53.5,29.91,ESE,120,0.0,2.0,76,0.00,,,0.00,0,Wunderground v.1.15,2013-08-17 12:08:00,
2013-08-17 05:13:00,61.3,53.3,29.91,ESE,120,0.0,0.0,75,0.00,,,0.00,0,Wunderground v.1.15,2013-08-17 12:13:00,
2013-08-17 05:18:00,60.9,53.6,29.91,SE,126,0.0,1.0,77,0.00,,,0.00,0,Wunderground v.1.15,2013-08-17 12:18:00,
2013-08-17 05:24:00,60.7,53.4,29.91,ESE,121,1.0,2.0,77,0.00,,,0.00,0,Wunderground v.1.15,2013-08-17 12:24:00,
2013-08-17 05:29:00,60.6,53.3,29.91,SE,132,1.0,2.0,77,0.00,,,0.00,0,Wunderground v.1.15,2013-08-17 12:29:00,
2013-08-17 05:34:00,60.4,53.2,29.91,SE,124,2.0,2.0,77,0.00,,,0.00,0,Wunderground v.1.15,2013-08-17 12:34:00,
2013-08-17 05:40:00,60.2,53.3,29.91,ESE,118,2.0,3.0,78,0.00,,,0.00,0,Wunderground v.1.15,2013-08-17 12:40:00,
2013-08-17 05:45:00,60.2,53.7,29.91,ESE,105,3.0,3.0,79,0.00,,,0.00,0,Wunderground v.1.15,2013-08-17 12:45:00,
2013-08-17 05:51:00,60.0,53.1,29.91,ESE,122,2.0,3.0,78,0.00,,,0.00,0,Wunderground v.1.15,2013-08-17 12:51:00,
2013-08-17 05:56:00,60.2,53.3,29.91,ESE,122,1.0,5.0,78,0.00,,,0.00,0,Wunderground v.1.15,2013-08-17 12:56:00,
2013-08-17 06:01:00,60.0,53.1,29.91,ESE,122,0.0,0.0,78,0.00,,,0.00,0,Wunderground v.1.15,2013-08-17 13:01:00,
2013-08-17 06:07:00,60.1,53.6,29.91,ESE,122,0.0,0.0,79,0.00,,,0.00,0,Wunderground v.1.15,2013-08-17 13:07:00,
2013-08-17 06:12:00,60.0,53.1,29.91,ESE,122,0.0,0.0,78,0.00,,,0.00,0,Wunderground v.1.15,2013-08-17 13:12:00,
2013-08-17 06:18:00,59.9,53.4,29.91,SE,125,1.0,2.0,79,0.00,,,0.00,5,Wunderground v.1.15,2013-08-17 13:18:00,
2013-08-17 06:23:00,59.7,53.5,29.91,East,101,2.0,3.0,80,0.00,,,0.00,7,Wunderground v.1.15,2013-08-17 13:23:00,
2013-08-17 06:29:00,60.0,54.2,29.91,East,88,2.0,2.0,81,0.00,,,0.00,11,Wunderground v.1.15,2013-08-17 13:29:00,
2013-08-17 06:34:00,60.0,53.5,29.92,SSE,158,1.0,2.0,79,0.00,,,0.00,12,Wunderground v.1.15,2013-08-17 13:34:00,
2013-08-17 06:39:00,60.3,53.8,29.92,SSE,154,0.0,0.0,79,0.00,,,0.00,25,Wunderground v.1.15,2013-08-17 13:39:00,
2013-08-17 06:45:00,60.7,53.8,29.92,SE,138,0.0,1.0,78,0.00,,,0.00,39,Wunderground v.1.15,2013-08-17 13:45:00,
2013-08-17 06:51:00,60.7,53.8,29.92,SE,132,1.0,2.0,78,0.00,,,0.00,21,Wunderground v.1.15,2013-08-17 13:51:00,
2013-08-17 06:56:00,60.7,53.8,29.92,SE,128,2.0,2.0,78,0.00,,,0.00,25,Wunderground v.1.15,2013-08-17 13:56:00,
2013-08-17 07:02:00,61.2,53.9,29.92,SE,126,1.0,2.0,77,0.00,,,0.00,88,Wunderground v.1.15,2013-08-17 14:02:00,
2013-08-17 07:07:00,61.4,54.5,29.93,SE,124,1.0,3.0,78,0.00,,,0.00,104,Wunderground v.1.15,2013-08-17 14:07:00,
2013-08-17 07:12:00,62.0,55.1,29.93,SE,142,1.0,2.0,78,0.00,,,0.00,123,Wunderground v.1.15,2013-08-17 14:12:00,
2013-08-17 07:18:00,62.7,55.0,29.93,SE,127,1.0,2.0,76,0.00,,,0.00,141,Wunderground v.1.15,2013-08-17 14:18:00,
2013-08-17 07:23:00,63.5,55.8,29.93,SE,127,0.0,1.0,76,0.00,,,0.00,158,Wunderground v.1.15,2013-08-17 14:23:00,
2013-08-17 07:29:00,64.2,55.7,29.93,ESE,119,0.0,0.0,74,0.00,,,0.00,176,Wunderground v.1.15,2013-08-17 14:29:00,
2013-08-17 07:34:00,64.8,55.9,29.93,ESE,119,0.0,0.0,73,0.00,,,0.00,193,Wunderground v.1.15,2013-08-17 14:34:00,
2013-08-17 07:40:00,65.5,57.4,29.93,ESE,115,0.0,0.0,75,0.00,,,0.00,211,Wunderground v.1.15,2013-08-17 14:40:00,
2013-08-17 07:45:00,65.8,57.7,29.93,ESE,120,0.0,0.0,75,0.00,,,0.00,113,Wunderground v.1.15,2013-08-17 14:45:00,
2013-08-17 07:51:00,66.4,57.9,29.93,NE,43,0.0,1.0,74,0.00,,,0.00,148,Wunderground v.1.15,2013-08-17 14:51:00,
2013-08-17 07:56:00,66.7,58.5,29.93,WNW,296,1.0,3.0,75,0.00,,,0.00,264,Wunderground v.1.15,2013-08-17 14:56:00,
2013-08-17 08:01:00,66.7,58.5,29.93,NNW,338,1.0,1.0,75,0.00,,,0.00,279,Wunderground v.1.15,2013-08-17 15:01:00,
2013-08-17 08:07:00,67.2,59.4,29.93,WNW,290,1.0,2.0,76,0.00,,,0.00,169,Wunderground v.1.15,2013-08-17 15:07:00,
2013-08-17 08:12:00,67.4,59.6,29.93,West,267,1.0,1.0,76,0.00,,,0.00,309,Wunderground v.1.15,2013-08-17 15:12:00,
2013-08-17 08:17:00,67.9,59.7,29.93,SSW,195,1.0,3.0,75,0.00,,,0.00,325,Wunderground v.1.15,2013-08-17 15:17:00,
2013-08-17 08:23:00,68.4,60.5,29.93,WSW,243,2.0,3.0,76,0.00,,,0.00,345,Wunderground v.1.15,2013-08-17 15:23:00,
2013-08-17 08:29:00,68.7,60.5,29.93,SSW,200,2.0,4.0,75,0.00,,,0.00,366,Wunderground v.1.15,2013-08-17 15:29:00,
2013-08-17 08:35:00,69.2,60.6,29.93,SW,221,3.0,4.0,74,0.00,,,0.00,383,Wunderground v.1.15,2013-08-17 15:35:00,
2013-08-17 08:40:00,69.6,60.9,29.93,WNW,294,3.0,3.0,74,0.00,,,0.00,388,Wunderground v.1.15,2013-08-17 15:40:00,
2013-08-17 08:46:00,69.6,60.6,29.93,WNW,286,2.0,3.0,73,0.00,,,0.00,418,Wunderground v.1.15,2013-08-17 15:46:00,
2013-08-17 08:52:00,70.1,60.7,29.93,West,273,2.0,4.0,72,0.00,,,0.00,436,Wunderground v.1.15,2013-08-17 15:52:00,
2013-08-17 08:57:00,70.9,61.4,29.93,South,183,2.0,4.0,72,0.00,,,0.00,452,Wunderground v.1.15,2013-08-17 15:57:00,
2013-08-17 09:03:00,71.2,62.1,29.93,SSW,192,2.0,3.0,73,0.00,,,0.00,469,Wunderground v.1.15,2013-08-17 16:03:00,
2013-08-17 09:08:00,71.9,62.4,29.93,South,185,2.0,5.0,72,0.00,,,0.00,485,Wunderground v.1.15,2013-08-17 16:08:00,
2013-08-17 09:13:00,72.6,62.7,29.93,WSW,257,2.0,2.0,71,0.00,,,0.00,501,Wunderground v.1.15,2013-08-17 16:13:00,
2013-08-17 09:19:00,73.0,62.2,29.93,WSW,248,2.0,3.0,69,0.00,,,0.00,517,Wunderground v.1.15,2013-08-17 16:19:00,
2013-08-17 09:25:00,73.3,62.5,29.93,South,182,2.0,3.0,69,0.00,,,0.00,533,Wunderground v.1.15,2013-08-17 16:25:00,
2013-08-17 09:30:00,74.2,63.0,29.93,SSW,207,2.0,3.0,68,0.00,,,0.00,548,Wunderground v.1.15,2013-08-17 16:30:00,
2013-08-17 09:35:00,74.2,63.0,29.93,SW,222,3.0,4.0,68,0.00,,,0.00,559,Wunderground v.1.15,2013-08-17 16:35:00,
2013-08-17 09:41:00,74.7,63.0,29.93,SSW,204,3.0,3.0,67,0.00,,,0.00,573,Wunderground v.1.15,2013-08-17 16:41:00,
2013-08-17 09:46:00,74.7,63.0,29.93,South,175,3.0,5.0,67,0.00,,,0.00,589,Wunderground v.1.15,2013-08-17 16:46:00,
2013-08-17 09:51:00,74.8,63.1,29.93,SW,216,3.0,6.0,67,0.00,,,0.00,603,Wunderground v.1.15,2013-08-17 16:51:00,
2013-08-17 09:57:00,75.5,62.9,29.93,SSW,206,3.0,6.0,65,0.00,,,0.00,615,Wunderground v.1.15,2013-08-17 16:57:00,
2013-08-17 10:02:00,75.8,63.2,29.93,South,173,2.0,4.0,65,0.00,,,0.00,629,Wunderground v.1.15,2013-08-17 17:02:00,
2013-08-17 10:08:00,76.4,63.3,29.93,WSW,240,2.0,4.0,64,0.00,,,0.00,643,Wunderground v.1.15,2013-08-17 17:08:00,
2013-08-17 10:13:00,76.8,63.2,29.93,SSW,194,2.0,6.0,63,0.00,,,0.00,656,Wunderground v.1.15,2013-08-17 17:13:00,
2013-08-17 10:19:00,77.1,63.1,29.93,SSW,207,3.0,4.0,62,0.00,,,0.00,668,Wunderground v.1.15,2013-08-17 17:19:00,
2013-08-17 10:24:00,77.6,63.1,29.93,SSW,192,2.0,4.0,61,0.00,,,0.00,682,Wunderground v.1.15,2013-08-17 17:24:00,
2013-08-17 10:29:00,77.8,63.3,29.92,SW,233,3.0,3.0,61,0.00,,,0.00,691,Wunderground v.1.15,2013-08-17 17:29:00,
2013-08-17 10:35:00,78.7,63.2,29.92,West,279,3.0,4.0,59,0.00,,,0.00,707,Wunderground v.1.15,2013-08-17 17:35:00,
2013-08-17 10:40:00,78.8,62.8,29.92,SW,220,3.0,5.0,58,0.00,,,0.00,717,Wunderground v.1.15,2013-08-17 17:40:00,
2013-08-17 10:45:00,79.8,63.2,29.92,SSW,207,3.0,5.0,57,0.00,,,0.00,726,Wunderground v.1.15,2013-08-17 17:45:00,
2013-08-17 10:51:00,80.2,62.6,29.92,SW,236,3.0,6.0,55,0.00,,,0.00,740,Wunderground v.1.15,2013-08-17 17:51:00,
2013-08-17 10:56:00,80.1,62.5,29.92,WNW,292,3.0,7.0,55,0.00,,,0.00,749,Wunderground v.1.15,2013-08-17 17:56:00,
2013-08-17 11:01:00,80.3,62.1,29.92,WSW,252,3.0,6.0,54,0.00,,,0.00,759,Wunderground v.1.15,2013-08-17 18:01:00,
2013-08-17 11:07:00,82.1,63.3,29.91,West,264,2.0,6.0,53,0.00,,,0.00,773,Wunderground v.1.15,2013-08-17 18:07:00,
2013-08-17 11:12:00,82.4,62.5,29.91,SW,232,2.0,4.0,51,0.00,,,0.00,780,Wunderground v.1.15,2013-08-17 18:12:00,
2013-08-17 11:17:00,82.6,62.1,29.91,SSE,165,4.0,5.0,50,0.00,,,0.00,788,Wunderground v.1.15,2013-08-17 18:17:00,
2013-08-17 11:23:00,82.5,60.8,29.91,NW,318,4.0,4.0,48,0.00,,,0.00,791,Wunderground v.1.15,2013-08-17 18:23:00,
2013-08-17 11:28:00,83.0,61.3,29.90,South,182,2.0,5.0,48,0.00,,,0.00,805,Wunderground v.1.15,2013-08-17 18:28:00,
2013-08-17 11:34:00,83.8,62.0,29.90,NW,317,3.0,7.0,48,0.00,,,0.00,810,Wunderground v.1.15,2013-08-17 18:34:00,
2013-08-17 11:39:00,83.2,62.1,29.90,WSW,253,4.0,4.0,49,0.00,,,0.00,812,Wunderground v.1.15,2013-08-17 18:39:00,
2013-08-17 11:44:00,83.9,62.1,29.90,West,279,4.0,7.0,48,0.00,,,0.00,814,Wunderground v.1.15,2013-08-17 18:44:00,
2013-08-17 11:50:00,84.7,61.6,29.90,SSW,213,4.0,9.0,46,0.00,,,0.00,824,Wunderground v.1.15,2013-08-17 18:50:00,
2013-08-17 11:56:00,85.0,61.3,29.90,SW,232,3.0,9.0,45,0.00,,,0.00,833,Wunderground v.1.15,2013-08-17 18:56:00,
2013-08-17 12:01:00,84.9,60.6,29.90,WSW,253,3.0,4.0,44,0.00,,,0.00,838,Wunderground v.1.15,2013-08-17 19:01:00,
2013-08-17 12:07:00,85.5,61.7,29.90,West,267,5.0,7.0,45,0.00,,,0.00,837,Wunderground v.1.15,2013-08-17 19:07:00,
2013-08-17 12:12:00,85.3,62.2,29.90,SSW,196,4.0,4.0,46,0.00,,,0.00,840,Wunderground v.1.15,2013-08-17 19:12:00,
2013-08-17 12:17:00,85.7,61.9,29.89,SW,223,4.0,6.0,45,0.00,,,0.00,844,Wunderground v.1.15,2013-08-17 19:17:00,
2013-08-17 12:23:00,86.2,61.7,29.89,SSW,203,5.0,7.0,44,0.00,,,0.00,847,Wunderground v.1.15,2013-08-17 19:23:00,
2013-08-17 12:29:00,86.3,61.2,29.89,WNW,283,5.0,5.0,43,0.00,,,0.00,851,Wunderground v.1.15,2013-08-17 19:29:00,
2013-08-17 12:40:00,86.5,61.3,29.88,SSW,198,5.0,5.0,43,0.00,,,0.00,858,Wunderground v.1.15,2013-08-17 19:40:00,
2013-08-17 12:45:00,86.7,61.5,29.88,WSW,240,4.0,8.0,43,0.00,,,0.00,856,Wunderground v.1.15,2013-08-17 19:45:00,
2013-08-17 12:50:00,87.2,61.3,29.87,SW,226,5.0,11.0,42,0.00,,,0.00,856,Wunderground v.1.15,2013-08-17 19:50:00,
2013-08-17 12:56:00,87.2,62.0,29.87,SSW,202,6.0,11.0,43,0.00,,,0.00,856,Wunderground v.1.15,2013-08-17 19:56:00,
2013-08-17 13:01:00,87.2,61.3,29.87,West,263,4.0,5.0,42,0.00,,,0.00,853,Wunderground v.1.15,2013-08-17 20:01:00,
2013-08-17 13:06:00,87.9,62.6,29.87,West,279,4.0,5.0,43,0.00,,,0.00,856,Wunderground v.1.15,2013-08-17 20:06:00,
2013-08-17 13:12:00,87.9,62.6,29.87,SW,235,5.0,10.0,43,0.00,,,0.00,854,Wunderground v.1.15,2013-08-17 20:12:00,
2013-08-17 13:17:00,87.7,63.1,29.87,South,173,5.0,10.0,44,0.00,,,0.00,856,Wunderground v.1.15,2013-08-17 20:17:00,
2013-08-17 13:22:00,88.1,63.4,29.87,SW,216,4.0,9.0,44,0.00,,,0.00,851,Wunderground v.1.15,2013-08-17 20:22:00,
2013-08-17 13:27:00,87.7,62.4,29.87,WNW,291,5.0,9.0,43,0.00,,,0.00,846,Wunderground v.1.15,2013-08-17 20:27:00,
2013-08-17 13:33:00,88.2,63.5,29.86,WSW,258,5.0,7.0,44,0.00,,,0.00,844,Wunderground v.1.15,2013-08-17 20:33:00,
2013-08-17 13:38:00,88.1,63.4,29.86,SW,227,6.0,8.0,44,0.00,,,0.00,838,Wunderground v.1.15,2013-08-17 20:38:00,
2013-08-17 13:44:00,88.3,63.0,29.86,WSW,248,5.0,5.0,43,0.00,,,0.00,837,Wunderground v.1.15,2013-08-17 20:44:00,
2013-08-17 13:49:00,88.0,62.7,29.86,SW,215,6.0,6.0,43,0.00,,,0.00,833,Wunderground v.1.15,2013-08-17 20:49:00,
2013-08-17 13:55:00,87.7,62.4,29.86,WSW,238,6.0,8.0,43,0.00,,,0.00,824,Wunderground v.1.15,2013-08-17 20:55:00,
2013-08-17 14:00:00,88.0,63.4,29.85,SW,229,6.0,9.0,44,0.00,,,0.00,819,Wunderground v.1.15,2013-08-17 21:00:00,
2013-08-17 14:06:00,87.9,63.3,29.85,SSW,211,5.0,9.0,44,0.00,,,0.00,812,Wunderground v.1.15,2013-08-17 21:06:00,
2013-08-17 14:11:00,88.4,62.4,29.85,SSE,167,5.0,6.0,42,0.00,,,0.00,807,Wunderground v.1.15,2013-08-17 21:11:00,
2013-08-17 14:16:00,88.8,62.7,29.85,WSW,242,5.0,8.0,42,0.00,,,0.00,805,Wunderground v.1.15,2013-08-17 21:16:00,
2013-08-17 14:21:00,88.5,62.5,29.85,SW,219,5.0,6.0,42,0.00,,,0.00,796,Wunderground v.1.15,2013-08-17 21:21:00,
2013-08-17 14:27:00,88.7,62.0,29.85,SW,217,4.0,6.0,41,0.00,,,0.00,788,Wunderground v.1.15,2013-08-17 21:27:00,
2013-08-17 14:32:00,89.0,62.2,29.84,SW,236,4.0,5.0,41,0.00,,,0.00,780,Wunderground v.1.15,2013-08-17 21:32:00,
2013-08-17 14:38:00,88.8,62.1,29.84,WNW,285,5.0,9.0,41,0.00,,,0.00,772,Wunderground v.1.15,2013-08-17 21:38:00,
2013-08-17 14:43:00,88.8,62.1,29.84,South,172,5.0,9.0,41,0.00,,,0.00,763,Wunderground v.1.15,2013-08-17 21:43:00,
2013-08-17 14:48:00,88.6,62.6,29.83,SW,228,5.0,9.0,42,0.00,,,0.00,758,Wunderground v.1.15,2013-08-17 21:48:00,
2013-08-17 14:54:00,88.5,61.8,29.83,ESE,117,5.0,6.0,41,0.00,,,0.00,742,Wunderground v.1.15,2013-08-17 21:54:00,
2013-08-17 14:59:00,88.4,62.4,29.83,SW,230,5.0,5.0,42,0.00,,,0.00,731,Wunderground v.1.15,2013-08-17 21:59:00,
2013-08-17 15:05:00,88.9,62.8,29.83,SSW,205,5.0,6.0,42,0.00,,,0.00,722,Wunderground v.1.15,2013-08-17 22:05:00,
2013-08-17 15:11:00,88.7,62.0,29.83,SSW,213,5.0,9.0,41,0.00,,,0.00,714,Wunderground v.1.15,2013-08-17 22:11:00,
2013-08-17 15:16:00,88.8,62.1,29.83,SW,215,5.0,9.0,41,0.00,,,0.00,700,Wunderground v.1.15,2013-08-17 22:16:00,
2013-08-17 15:22:00,88.8,62.7,29.82,SW,223,4.0,9.0,42,0.00,,,0.00,686,Wunderground v.1.15,2013-08-17 22:22:00,
2013-08-17 15:27:00,88.7,62.7,29.82,SW,233,5.0,9.0,42,0.00,,,0.00,673,Wunderground v.1.15,2013-08-17 22:27:00,
2013-08-17 15:32:00,88.7,62.7,29.82,SW,221,6.0,11.0,42,0.00,,,0.00,661,Wunderground v.1.15,2013-08-17 22:32:00,
2013-08-17 15:38:00,89.2,63.1,29.82,West,264,5.0,11.0,42,0.00,,,0.00,650,Wunderground v.1.15,2013-08-17 22:38:00,
2013-08-17 15:43:00,88.6,62.6,29.82,South,184,4.0,7.0,42,0.00,,,0.00,636,Wunderground v.1.15,2013-08-17 22:43:00,
2013-08-17 15:49:00,88.3,62.3,29.82,SSW,207,5.0,6.0,42,0.00,,,0.00,621,Wunderground v.1.15,2013-08-17 22:49:00,
2013-08-17 15:54:00,88.1,62.8,29.81,West,267,5.0,7.0,43,0.00,,,0.00,610,Wunderground v.1.15,2013-08-17 22:54:00,
2013-08-17 15:59:00,88.2,62.9,29.81,SSE,159,6.0,6.0,43,0.00,,,0.00,596,Wunderground v.1.15,2013-08-17 22:59:00,
2013-08-17 16:05:00,88.5,62.5,29.81,SSW,193,5.0,6.0,42,0.00,,,0.00,578,Wunderground v.1.15,2013-08-17 23:05:00,
2013-08-17 16:10:00,88.2,62.2,29.81,South,178,5.0,5.0,42,0.00,,,0.00,563,Wunderground v.1.15,2013-08-17 23:10:00,
2013-08-17 16:16:00,88.2,62.2,29.80,SSW,210,6.0,10.0,42,0.00,,,0.00,547,Wunderground v.1.15,2013-08-17 23:16:00,
2013-08-17 16:21:00,88.1,62.1,29.80,SSW,194,6.0,7.0,42,0.00,,,0.00,534,Wunderground v.1.15,2013-08-17 23:21:00,
2013-08-17 16:26:00,88.8,61.4,29.80,West,274,4.0,7.0,40,0.00,,,0.00,519,Wunderground v.1.15,2013-08-17 23:26:00,
2013-08-17 16:32:00,87.9,61.3,29.80,NW,308,5.0,7.0,41,0.00,,,0.00,501,Wunderground v.1.15,2013-08-17 23:32:00,
2013-08-17 16:38:00,87.8,61.2,29.80,South,190,5.0,8.0,41,0.00,,,0.00,482,Wunderground v.1.15,2013-08-17 23:38:00,
2013-08-17 16:43:00,87.8,61.2,29.80,SW,231,5.0,7.0,41,0.00,,,0.00,471,Wunderground v.1.15,2013-08-17 23:43:00,
2013-08-17 16:48:00,88.2,60.8,29.80,WSW,245,5.0,7.0,40,0.00,,,0.00,454,Wunderground v.1.15,2013-08-17 23:48:00,
2013-08-17 16:54:00,87.7,61.1,29.80,SW,225,5.0,7.0,41,0.00,,,0.00,438,Wunderground v.1.15,2013-08-17 23:54:00,
2013-08-17 16:59:00,87.5,60.2,29.80,South,189,5.0,5.0,40,0.00,,,0.00,422,Wunderground v.1.15,2013-08-17 23:59:00,
2013-08-17 17:05:00,87.3,60.0,29.80,SW,226,6.0,10.0,40,0.00,,,0.00,403,Wunderground v.1.15,2013-08-18 00:05:00,
2013-08-17 17:10:00,87.0,59.8,29.80,WSW,250,6.0,8.0,40,0.00,,,0.00,388,Wunderground v.1.15,2013-08-18 00:10:00,
2013-08-17 17:16:00,87.5,58.8,29.80,SW,228,5.0,8.0,38,0.00,,,0.00,371,Wunderground v.1.15,2013-08-18 00:16:00,
2013-08-17 17:21:00,87.4,57.9,29.79,SW,231,5.0,9.0,37,0.00,,,0.00,355,Wunderground v.1.15,2013-08-18 00:21:00,
2013-08-17 17:26:00,87.6,57.3,29.79,WNW,293,5.0,9.0,36,0.00,,,0.00,339,Wunderground v.1.15,2013-08-18 00:26:00,
2013-08-17 17:32:00,87.5,57.3,29.79,SSW,192,4.0,8.0,36,0.00,,,0.00,322,Wunderground v.1.15,2013-08-18 00:32:00,
2013-08-17 17:37:00,86.6,56.5,29.79,West,267,5.0,8.0,36,0.00,,,0.00,306,Wunderground v.1.15,2013-08-18 00:37:00,
2013-08-17 17:43:00,86.5,57.1,29.79,SW,236,5.0,6.0,37,0.00,,,0.00,287,Wunderground v.1.15,2013-08-18 00:43:00,
2013-08-17 17:48:00,86.2,56.9,29.79,WSW,244,5.0,7.0,37,0.00,,,0.00,269,Wunderground v.1.15,2013-08-18 00:48:00,
2013-08-17 17:53:00,86.0,55.9,29.79,SW,230,4.0,9.0,36,0.00,,,0.00,255,Wunderground v.1.15,2013-08-18 00:53:00,
2013-08-17 17:59:00,85.7,57.2,29.79,West,271,4.0,6.0,38,0.00,,,0.00,234,Wunderground v.1.15,2013-08-18 00:59:00,
2013-08-17 18:05:00,85.4,57.6,29.79,West,279,4.0,8.0,39,0.00,,,0.00,213,Wunderground v.1.15,2013-08-18 01:05:00,
2013-08-17 18:11:00,85.2,57.4,29.79,West,281,4.0,5.0,39,0.00,,,0.00,193,Wunderground v.1.15,2013-08-18 01:11:00,
2013-08-17 18:16:00,84.9,57.2,29.79,NW,306,4.0,5.0,39,0.00,,,0.00,174,Wunderground v.1.15,2013-08-18 01:16:00,
2013-08-17 18:22:00,84.5,57.5,29.79,WNW,290,3.0,4.0,40,0.00,,,0.00,153,Wunderground v.1.15,2013-08-18 01:22:00,
2013-08-17 18:27:00,84.6,57.6,29.79,SW,222,3.0,4.0,40,0.00,,,0.00,134,Wunderground v.1.15,2013-08-18 01:27:00,
2013-08-17 18:32:00,83.8,57.6,29.79,West,269,3.0,5.0,41,0.00,,,0.00,114,Wunderground v.1.15,2013-08-18 01:32:00,
2013-08-17 18:38:00,83.6,58.1,29.79,SE,144,3.0,5.0,42,0.00,,,0.00,95,Wunderground v.1.15,2013-08-18 01:38:00,
2013-08-17 18:43:00,83.3,58.5,29.79,SW,225,2.0,5.0,43,0.00,,,0.00,79,Wunderground v.1.15,2013-08-18 01:43:00,
2013-08-17 18:48:00,82.8,58.7,29.80,SSW,210,3.0,7.0,44,0.00,,,0.00,65,Wunderground v.1.15,2013-08-18 01:48:00,
2013-08-17 18:54:00,82.4,58.3,29.80,WSW,239,4.0,6.0,44,0.00,,,0.00,49,Wunderground v.1.15,2013-08-18 01:54:00,
2013-08-17 18:59:00,81.9,56.6,29.80,WSW,248,3.0,3.0,42,0.00,,,0.00,37,Wunderground v.1.15,2013-08-18 01:59:00,
2013-08-17 19:05:00,81.6,54.9,29.80,West,261,3.0,6.0,40,0.00,,,0.00,25,Wunderground v.1.15,2013-08-18 02:05:00,
2013-08-17 19:11:00,81.1,53.8,29.80,West,268,3.0,4.0,39,0.00,,,0.00,18,Wunderground v.1.15,2013-08-18 02:11:00,
2013-08-17 19:16:00,80.6,54.0,29.80,West,261,3.0,4.0,40,0.00,,,0.00,14,Wunderground v.1.15,2013-08-18 02:16:00,
2013-08-17 19:21:00,80.1,54.3,29.80,West,275,2.0,2.0,41,0.00,,,0.00,11,Wunderground v.1.15,2013-08-18 02:21:00,
2013-08-17 19:27:00,79.4,55.0,29.81,WSW,252,2.0,3.0,43,0.00,,,0.00,9,Wunderground v.1.15,2013-08-18 02:27:00,
2013-08-17 19:32:00,78.9,55.1,29.81,West,281,2.0,4.0,44,0.00,,,0.00,5,Wunderground v.1.15,2013-08-18 02:32:00,
2013-08-17 19:38:00,78.2,55.7,29.81,WSW,252,3.0,5.0,46,0.00,,,0.00,0,Wunderground v.1.15,2013-08-18 02:38:00,
2013-08-17 19:43:00,77.6,56.4,29.81,SW,220,3.0,5.0,48,0.00,,,0.00,0,Wunderground v.1.15,2013-08-18 02:43:00,
2013-08-17 19:49:00,77.1,56.5,29.81,West,259,3.0,3.0,49,0.00,,,0.00,0,Wunderground v.1.15,2013-08-18 02:49:00,
2013-08-17 19:54:00,76.6,56.6,29.81,WSW,246,2.0,3.0,50,0.00,,,0.00,0,Wunderground v.1.15,2013-08-18 02:54:00,
2013-08-17 19:59:00,76.2,57.8,29.81,WSW,250,2.0,3.0,53,0.00,,,0.00,0,Wunderground v.1.15,2013-08-18 02:59:00,
2013-08-17 20:05:00,75.9,58.1,29.81,WSW,241,2.0,4.0,54,0.00,,,0.00,0,Wunderground v.1.15,2013-08-18 03:05:00,
2013-08-17 20:11:00,75.6,58.3,29.82,WSW,242,2.0,4.0,55,0.00,,,0.00,0,Wunderground v.1.15,2013-08-18 03:11:00,
2013-08-17 20:16:00,75.2,59.9,29.82,SW,228,2.0,4.0,59,0.00,,,0.00,0,Wunderground v.1.15,2013-08-18 03:16:00,
2013-08-17 20:22:00,74.7,60.8,29.82,SE,134,2.0,4.0,62,0.00,,,0.00,0,Wunderground v.1.15,2013-08-18 03:22:00,
2013-08-17 20:28:00,73.9,61.0,29.82,SSE,167,2.0,4.0,64,0.00,,,0.00,0,Wunderground v.1.15,2013-08-18 03:28:00,
2013-08-17 20:33:00,73.4,60.9,29.83,SSE,148,2.0,2.0,65,0.00,,,0.00,0,Wunderground v.1.15,2013-08-18 03:33:00,
2013-08-17 20:39:00,73.0,61.0,29.83,SSE,155,2.0,2.0,66,0.00,,,0.00,0,Wunderground v.1.15,2013-08-18 03:39:00,
2013-08-17 20:44:00,72.7,61.1,29.83,SSE,163,2.0,2.0,67,0.00,,,0.00,0,Wunderground v.1.15,2013-08-18 03:44:00,
2013-08-17 20:50:00,72.5,60.9,29.83,SW,227,1.0,1.0,67,0.00,,,0.00,0,Wunderground v.1.15,2013-08-18 03:50:00,
2013-08-17 20:55:00,72.6,61.0,29.83,SE,137,0.0,5.0,67,0.00,,,0.00,0,Wunderground v.1.15,2013-08-18 03:55:00,
2013-08-17 21:00:00,72.4,60.8,29.83,SE,126,0.0,0.0,67,0.00,,,0.00,0,Wunderground v.1.15,2013-08-18 04:00:00,
2013-08-17 21:01:00,72.4,60.8,29.83,SE,126,0.0,0.0,67,0.00,,,0.00,0,Wunderground v.1.15,2013-08-18 04:01:00,
2013-08-17 21:03:00,72.3,61.1,29.84,SE,125,0.0,1.0,68,0.00,,,0.00,0,Wunderground v.1.15,2013-08-18 04:03:00,
2013-08-17 21:04:00,72.2,61.0,29.84,SE,125,0.0,1.0,68,0.00,,,0.00,0,Wunderground v.1.15,2013-08-18 04:04:00,
2013-08-17 21:07:00,72.1,61.0,29.84,SE,132,0.0,1.0,68,0.00,,,0.00,0,Wunderground v.1.15,2013-08-18 04:07:00,
2013-08-17 21:09:00,72.0,60.9,29.84,SE,132,0.0,0.0,68,0.00,,,0.00,0,Wunderground v.1.15,2013-08-18 04:09:00,
2013-08-17 21:14:00,71.9,60.8,29.84,SE,130,0.0,0.0,68,0.00,,,0.00,0,Wunderground v.1.15,2013-08-18 04:14:00,
2013-08-17 21:19:00,71.3,60.2,29.84,ESE,107,0.0,0.0,68,0.00,,,0.00,0,Wunderground v.1.15,2013-08-18 04:19:00,
2013-08-17 21:25:00,70.8,60.1,29.84,ESE,107,0.0,0.0,69,0.00,,,0.00,0,Wunderground v.1.15,2013-08-18 04:25:00,
2013-08-17 21:30:00,70.5,59.8,29.84,ESE,107,0.0,0.0,69,0.00,,,0.00,0,Wunderground v.1.15,2013-08-18 04:30:00,
2013-08-17 21:35:00,70.4,59.3,29.84,ESE,107,0.0,0.0,68,0.00,,,0.00,0,Wunderground v.1.15,2013-08-18 04:35:00,
2013-08-17 21:41:00,69.5,58.9,29.84,ESE,107,0.0,0.0,69,0.00,,,0.00,0,Wunderground v.1.15,2013-08-18 04:41:00,
2013-08-17 21:46:00,69.0,58.8,29.84,ESE,107,0.0,0.0,70,0.00,,,0.00,0,Wunderground v.1.15,2013-08-18 04:46:00,
2013-08-17 21:52:00,69.2,59.0,29.84,ESE,107,0.0,0.0,70,0.00,,,0.00,0,Wunderground v.1.15,2013-08-18 04:52:00,
2013-08-17 21:57:00,68.7,58.5,29.84,SE,133,0.0,2.0,70,0.00,,,0.00,0,Wunderground v.1.15,2013-08-18 04:57:00,
2013-08-17 22:03:00,68.5,58.7,29.84,SE,133,0.0,0.0,71,0.00,,,0.00,0,Wunderground v.1.15,2013-08-18 05:03:00,
2013-08-17 22:08:00,68.1,58.3,29.84,SE,133,0.0,0.0,71,0.00,,,0.00,0,Wunderground v.1.15,2013-08-18 05:08:00,
2013-08-17 22:13:00,67.0,56.9,29.84,SE,133,0.0,2.0,70,0.00,,,0.00,0,Wunderground v.1.15,2013-08-18 05:13:00,
2013-08-17 22:19:00,66.5,57.6,29.85,SE,133,0.0,0.0,73,0.00,,,0.00,0,Wunderground v.1.15,2013-08-18 05:19:00,
2013-08-17 22:24:00,66.4,57.5,29.85,SE,124,0.0,2.0,73,0.00,,,0.00,0,Wunderground v.1.15,2013-08-18 05:24:00,
2013-08-17 22:30:00,66.2,57.7,29.85,ESE,118,0.0,1.0,74,0.00,,,0.00,0,Wunderground v.1.15,2013-08-18 05:30:00,
2013-08-17 22:35:00,66.2,57.7,29.85,ESE,118,0.0,1.0,74,0.00,,,0.00,0,Wunderground v.1.15,2013-08-18 05:35:00,
2013-08-17 22:41:00,66.5,58.0,29.85,ESE,119,0.0,0.0,74,0.00,,,0.00,0,Wunderground v.1.15,2013-08-18 05:41:00,
2013-08-17 22:46:00,65.4,56.5,29.85,ESE,123,0.0,2.0,73,0.00,,,0.00,0,Wunderground v.1.15,2013-08-18 05:46:00,
2013-08-17 22:51:00,64.8,57.1,29.85,SE,126,1.0,2.0,76,0.00,,,0.00,0,Wunderground v.1.15,2013-08-18 05:51:00,
2013-08-17 22:57:00,65.1,57.3,29.85,ESE,121,1.0,2.0,76,0.00,,,0.00,0,Wunderground v.1.15,2013-08-18 05:57:00,
2013-08-17 23:02:00,65.3,57.5,29.85,ESE,121,0.0,1.0,76,0.00,,,0.00,0,Wunderground v.1.15,2013-08-18 06:02:00,
2013-08-17 23:07:00,65.5,57.7,29.85,ESE,121,0.0,1.0,76,0.00,,,0.00,0,Wunderground v.1.15,2013-08-18 06:07:00,
2013-08-17 23:13:00,65.6,57.5,29.85,ESE,121,0.0,0.0,75,0.00,,,0.00,0,Wunderground v.1.15,2013-08-18 06:13:00,
2013-08-17 23:18:00,65.4,56.9,29.85,ESE,121,0.0,0.0,74,0.00,,,0.00,0,Wunderground v.1.15,2013-08-18 06:18:00,
2013-08-17 23:23:00,64.8,56.7,29.85,SE,131,1.0,2.0,75,0.00,,,0.00,0,Wunderground v.1.15,2013-08-18 06:23:00,
2013-08-17 23:29:00,64.4,56.7,29.85,ESE,119,1.0,1.0,76,0.00,,,0.00,0,Wunderground v.1.15,2013-08-18 06:29:00,
2013-08-17 23:34:00,64.1,56.4,29.85,ESE,117,1.0,2.0,76,0.00,,,0.00,0,Wunderground v.1.15,2013-08-18 06:34:00,
2013-08-17 23:40:00,64.1,56.4,29.85,ESE,123,0.0,0.0,76,0.00,,,0.00,0,Wunderground v.1.15,2013-08-18 06:40:00,
2013-08-17 23:45:00,64.1,56.4,29.85,ESE,123,0.0,1.0,76,0.00,,,0.00,0,Wunderground v.1.15,2013-08-18 06:45:00,
2013-08-17 23:50:00,63.8,56.1,29.85,SE,124,0.0,1.0,76,0.00,,,0.00,0,Wunderground v.1.15,2013-08-18 06:50:00,
2013-08-17 23:56:00,63.6,56.3,29.85,SE,124,0.0,3.0,77,0.00,,,0.00,0,Wunderground v.1.15,2013-08-18 06:56:00,